Weather History for Douglas, WY

Change the Weather History Date:

Wednesday, August 28, 2013

  Actual Average Record
Temperature  
Mean Temperature 78 °F 67 °F  
Max Temperature 96 °F 84 °F 98 °F (2012)
Min Temperature 59 °F 50 °F 34 °F (1964)
Degree Days  
Heating Degree Days 0 2  
Month to date heating degree days 0 21  
Since 1 June heating degree days 56 146  
Since 1 July heating degree days 0 36  
Cooling Degree Days 13 4  
Month to date cooling degree days 201 166  
Year to date cooling degree days 601 448  
Since 1 June cooling degree days 585 442  
Growing Degree Days 27 (Base 50)    
Moisture  
Dew Point 51 °F    
Average Humidity 50    
Maximum Humidity 80    
Minimum Humidity 19    
Precipitation  
Precipitation T in 0.04 in 0.81 in (2011)
Month to date precipitation 0.15 1.01  
Year to date precipitation 5.94 9.92  
Sea Level Pressure  
Sea Level Pressure 29.94 in    
Wind  
Wind Speed 7 mph (SE)    
Max Wind Speed 31 mph    
Max Gust Speed 39 mph    
Visibility 10 miles    
Events Thunderstorm    
T = Trace of Precipitation, MM = Missing Value Source: NWS Daily Summary

Daily Weather History Graph

Daily Weather History Graph

Search for Another Location

Airport:

Trip Planner

Search our weather history database for the weather conditions in past years. The results will help you decide how hot, cold, wet, or windy it might be!

Date:

Astronomy

Aug. 28, 2013 Rise Set
Actual Time 6:22 AM MDT 7:42 PM MDT
Civil Twilight 5:52 AM MDT 8:11 PM MDT
Nautical Twilight 5:17 AM MDT 8:46 PM MDT
Astronomical Twilight 4:40 AM MDT 9:23 PM MDT
Moon No Moon Rise 2:26 PM MDT (8/28)
Length of Visible Light 14h 18m
Length of Day
13h 20m
Waning Gibbous, 47% of the Moon is Illuminated
Aug 28
Waning Gibbous
Sep 5
New
Sep 12
First Quarter
Sep 19
Full
Sep 26
Last Quarter

Hourly Weather History & Observations

Time (MDT) Temp. Dew Point Humidity Pressure Visibility Wind Dir Wind Speed Gust Speed Precip Events Conditions
12:53 AM 68.0 °F 54.0 °F 61% 29.89 in 10.0 mi East 9.2 mph - N/A   Partly Cloudy
1:53 AM 66.0 °F 54.0 °F 65% 29.91 in 10.0 mi SE 3.5 mph - N/A   Mostly Cloudy
2:53 AM 66.0 °F 53.1 °F 63% 29.91 in 10.0 mi East 5.8 mph - N/A   Clear
3:53 AM 66.0 °F 54.0 °F 65% 29.90 in 10.0 mi ESE 3.5 mph - N/A   Clear
4:53 AM 61.0 °F 54.0 °F 78% 29.92 in 10.0 mi Calm Calm - N/A   Clear
5:53 AM 63.0 °F 54.0 °F 72% 29.92 in 10.0 mi Calm Calm - N/A   Clear
6:53 AM 59.0 °F 53.1 °F 81% 29.98 in 10.0 mi SSE 3.5 mph - N/A   Clear
7:53 AM 62.1 °F 55.0 °F 78% 29.99 in 10.0 mi NW 4.6 mph - N/A   Clear
8:53 AM 73.0 °F 54.0 °F 51% 29.97 in 10.0 mi North 3.5 mph - N/A   Clear
9:53 AM 80.1 °F 51.1 °F 36% 29.96 in 10.0 mi WNW 6.9 mph - N/A   Clear
10:53 AM 84.0 °F 52.0 °F 33% 29.96 in 10.0 mi NNW 5.8 mph - N/A   Clear
11:53 AM 87.1 °F 50.0 °F 28% 29.95 in 10.0 mi SW 4.6 mph - N/A   Clear
12:53 PM 90.0 °F 48.0 °F 24% 29.92 in 10.0 mi South 9.2 mph - N/A   Scattered Clouds
1:53 PM 89.1 °F 48.0 °F 24% 29.91 in 10.0 mi Calm Calm - N/A   Clear
2:53 PM 91.0 °F 48.0 °F 23% 29.88 in 10.0 mi ESE 3.5 mph - N/A   Scattered Clouds
3:21 PM 93.2 °F 50.0 °F 23% 30.09 in 10.0 mi North 8.1 mph - N/A   Scattered Clouds
3:53 PM 93.9 °F 48.0 °F 21% 29.86 in 10.0 mi Calm Calm - N/A   Clear
4:53 PM 95.0 °F 46.0 °F 19% 29.86 in 10.0 mi South 9.2 mph - N/A   Scattered Clouds
5:53 PM 87.1 °F 48.9 °F 27% 29.89 in 7.0 mi SSE 26.5 mph 34.5 mph N/A   Overcast
6:05 PM 82.4 °F 51.8 °F 35% 30.08 in 8.0 mi SSE 24.2 mph 39.1 mph N/A Thunderstorm Scattered Clouds
6:29 PM 82.4 °F 48.2 °F 30% 30.07 in 10.0 mi SSE 21.9 mph 27.6 mph N/A   Clear
6:53 PM 82.9 °F 48.0 °F 29% 29.90 in 10.0 mi SSE 16.1 mph 25.3 mph N/A   Clear
7:53 PM 79.0 °F 48.0 °F 34% 29.92 in 10.0 mi ESE 11.5 mph - N/A   Partly Cloudy
8:53 PM 77.0 °F 51.1 °F 40% 29.93 in 10.0 mi SE 12.7 mph - N/A   Scattered Clouds
9:53 PM 71.1 °F 53.1 °F 53% 29.94 in 10.0 mi ESE 8.1 mph - 0.00 in   Clear
10:53 PM 72.0 °F 52.0 °F 49% 29.94 in 10.0 mi SE 11.5 mph - N/A   Clear
11:53 PM 69.1 °F 52.0 °F 54% 29.93 in 10.0 mi SE 6.9 mph - N/A   Clear